Location: Borza
(45.9167°N, 18.6500°E)
Time: 01:22:50
(UTC+00:00)

Daily predictions for brighter satellites

Satellite Brightness Start Highest point End
(mag) Time Altitude Azimuth Time Altitude Azimuth Time Altitude Azimuth
STARLINK-1212 3.9 00:01:14 10° NW 00:04:15 45° NNE 00:07:15 10° E
STARLINK-1105 3.9 00:01:42 10° NW 00:04:43 45° NNE 00:07:42 10° E
STARLINK-1209 3.3 00:01:55 10° NW 00:05:02 61° NNE 00:06:56 21° ESE
STARLINK-1247 3.9 00:02:37 10° NW 00:05:39 46° NNE 00:08:40 10° E
STARLINK-1227 3.9 00:03:04 10° NW 00:06:05 46° NNE 00:09:05 10° E
ATLAS CENTAUR R/B 3.0 00:03:54 10° NNW 00:06:19 37° NE 00:11:04 10° ESE
STARLINK-52 4.0 00:07:16 36° E 00:07:16 36° E 00:09:36 10° ENE
STARLINK-1226 3.9 00:03:55 10° NW 00:06:58 47° NNE 00:09:59 10° E
CZ-4C R/B 4.2 00:05:39 10° SE 00:07:51 13° ESE 00:10:12 10° ENE
STARLINK-1215 3.8 00:04:52 10° NW 00:07:54 48° NNE 00:10:57 10° E
GEOS 3 Rocket 3.8 00:07:39 41° SSW 00:08:53 49° WSW 00:13:59 10° NW
STARLINK-1217 3.8 00:06:37 10° NW 00:09:40 49° NNE 00:12:43 10° ESE
STARLINK-1229 3.7 00:07:33 10° NW 00:10:36 50° NNE 00:13:39 10° ESE
SL-08 ROCKET BODY 4.5 00:08:22 32° S 00:11:11 71° E 00:17:02 10° NNE
STARLINK-1270 3.7 00:08:24 10° NW 00:11:28 50° NNE 00:14:31 10° ESE
Cosmos 2058 Rocket 3.3 00:08:42 10° NNW 00:12:59 51° W 00:13:46 45° SW
STARLINK-1189 3.7 00:10:15 10° NW 00:13:19 52° NNE 00:16:22 10° ESE
Meteor 1-29 4.2 00:10:23 10° N 00:13:21 29° WNW 00:13:32 29° WNW
STARLINK-1188 3.6 00:11:07 10° NW 00:14:12 53° NNE 00:17:16 10° ESE
COSMOS 2455 3.1 00:11:39 30° WSW 00:14:39 61° NW 00:20:39 10° NNE
STARLINK-1235 3.2 00:11:48 10° NW 00:14:53 65° NNE 00:17:58 10° ESE
STARLINK-1187 3.4 00:12:13 10° NW 00:15:18 59° NNE 00:18:21 10° ESE
Cosmos 2228 4.3 00:11:51 10° NW 00:15:19 25° W 00:15:32 25° W
STARLINK-1191 3.5 00:13:36 10° NW 00:16:39 54° NNE 00:19:43 10° ESE
Cosmos 2084 4.0 00:15:46 40° SSE 00:16:46 48° ESE 00:21:04 10° NE
SJ 16-02 3.0 00:13:09 10° N 00:17:11 32° ENE 00:21:11 10° SE
STARLINK-1221 3.5 00:14:28 10° NW 00:17:32 55° NNE 00:20:35 10° ESE
STARLINK-1222 3.5 00:15:21 10° NW 00:18:25 56° NNE 00:21:29 10° ESE
SL-14 R/B 3.6 00:18:39 45° WSW 00:19:13 49° WNW 00:22:59 10° N
STARLINK-1214 3.4 00:16:16 10° NW 00:19:20 57° NNE 00:22:23 10° ESE
Meteor 2-10 Rocket 4.5 00:15:14 10° N 00:20:22 45° ENE 00:24:55 12° SE
Cosmos 1386 Rocket 4.4 00:18:10 31° S 00:21:15 81° E 00:27:25 10° N
Okean 1-7 Rocket 4.3 00:22:03 35° WSW 00:23:12 42° WNW 00:27:29 10° N
Cosmos 921 Rocket 2.9 00:23:34 47° SW 00:24:43 77° WNW 00:29:02 10° NNE
Cosmos 1300 3.0 00:21:04 10° NNW 00:24:45 46° W 00:25:04 45° WSW
BREEZE M DEB (TANK) 2.3 00:26:49 35° NW 00:27:38 66° NNE 00:31:35 10° ESE
Cosmos 1626 Rocket 3.4 00:29:36 43° SSW 00:30:59 81° W 00:35:20 10° N
Cosmos 2219 3.3 00:28:26 10° NNW 00:34:09 76° ENE 00:39:46 10° SSE
Cosmos 1626 3.2 00:34:31 28° W 00:35:05 30° WNW 00:38:24 10° NNW
STARLINK-60 3.8 00:36:27 32° WNW 00:37:31 46° NNW 00:40:39 10° NE
STARLINK-1219 4.5 00:36:58 10° NW 00:41:02 52° NNE 00:45:05 10° E
Nadezhda 1 Rocket 4.1 00:36:15 10° NNW 00:42:20 62° W 00:45:52 26° SSW
STARLINK-1320 4.0 00:42:43 31° SE 00:42:43 31° SE 00:45:29 10° ENE
STARLINK-1322 4.0 00:43:04 31° SE 00:43:04 31° SE 00:45:49 10° ENE
FALCON 9 R/B 4.0 00:38:25 23° SW 00:43:10 46° S 01:06:19 10° ESE
STARLINK-1324 3.9 00:43:24 31° SE 00:43:24 31° SE 00:46:11 10° ENE
STARLINK-1294 3.9 00:43:40 32° SE 00:43:40 32° SE 00:46:29 10° ENE
STARLINK-1261 3.9 00:44:01 32° SE 00:44:01 32° SE 00:46:50 10° ENE
Cosmos 192 4.5 00:41:36 30° S 00:44:01 69° ESE 00:48:59 10° NNE
STARLINK-1325 3.9 00:44:22 32° SE 00:44:22 32° SE 00:47:12 10° ENE
STARLINK-1338 4.1 00:44:16 31° SSE 00:44:37 32° SE 00:47:45 10° ENE
STARLINK-1333 3.9 00:44:40 32° SE 00:44:40 32° SE 00:47:31 10° ENE
STARLINK-1334 3.9 00:45:00 32° SE 00:45:01 32° SE 00:47:51 10° ENE
STARLINK-1326 3.8 00:45:20 33° SE 00:45:21 33° SE 00:48:12 10° ENE
STARLINK-1323 3.8 00:45:39 33° SE 00:45:42 33° SE 00:48:32 10° ENE
MOZ.5/SAFIR/RUBIN 5/SL-8 4.1 00:44:15 33° SSW 00:45:47 45° W 00:50:16 10° NNW
STARLINK-1211 4.4 00:41:56 10° NW 00:46:01 54° NNE 00:50:05 10° ESE
UNK 3.8 00:44:00 32° S 00:46:01 61° WSW 00:50:35 10° NNW
STARLINK-1349 3.8 00:45:58 33° SE 00:46:01 33° SE 00:48:53 10° ENE
STARLINK-1336 3.8 00:46:20 33° SE 00:46:23 33° SE 00:49:15 10° ENE
STARLINK-1331 3.8 00:46:37 33° SE 00:46:42 33° SE 00:49:34 10° ENE
STARLINK-1344 3.8 00:46:57 34° SE 00:47:02 34° SE 00:49:54 10° ENE
STARLINK-1343 3.8 00:47:17 34° SE 00:47:23 34° SE 00:50:15 10° ENE
STARLINK-1346 3.7 00:47:35 34° SSE 00:47:45 34° SE 00:50:39 10° ENE
Cosmos 220 Rocket 4.2 00:46:16 34° SW 00:48:01 61° WNW 00:52:26 10° NNE
STARLINK-1328 3.7 00:47:57 34° SE 00:48:04 34° SE 00:50:57 10° ENE
STARLINK-1354 3.7 00:48:15 34° SSE 00:48:22 35° SE 00:51:16 10° ENE
STARLINK-1371 4.0 00:48:05 33° SSE 00:48:35 34° SE 00:51:48 10° ENE
STARLINK-1347 3.7 00:48:36 35° SSE 00:48:44 35° SE 00:51:37 10° ENE
STARLINK-1357 3.7 00:48:54 35° SSE 00:49:02 35° SE 00:51:56 10° ENE
STARLINK-1335 3.7 00:49:14 35° SSE 00:49:24 35° SE 00:52:17 10° ENE
STARLINK-1327 3.7 00:49:33 35° SSE 00:49:43 36° SE 00:52:37 10° ENE
Cosmos 2297 Rocket 2.3 00:44:07 10° NNW 00:49:49 81° ENE 00:55:27 10° SSE
STARLINK-1340 3.6 00:49:53 35° SSE 00:50:05 36° SE 00:52:59 10° ENE
STARLINK-1356 3.6 00:50:13 36° SSE 00:50:25 36° SE 00:53:19 10° ENE
STARLINK-1341 4.0 00:50:03 33° SSE 00:50:37 36° SE 00:53:52 10° ENE
AQUA 3.8 00:45:53 10° NNE 00:50:41 82° ESE 00:53:19 27° S
STARLINK-1345 3.6 00:50:33 36° SSE 00:50:46 36° SE 00:53:40 10° ENE
STARLINK-1245 4.3 00:46:55 10° NW 00:51:02 58° NNE 00:55:07 10° ESE
STARLINK-1355 3.6 00:50:51 36° SSE 00:51:05 37° SE 00:54:00 10° ENE
STARLINK-1321 3.6 00:51:10 36° SSE 00:51:24 37° SE 00:54:19 10° ENE
STARLINK-1358 3.6 00:51:31 36° SSE 00:51:46 37° SE 00:54:41 10° ENE
STARLINK-1332 3.6 00:51:49 37° SSE 00:52:05 37° SE 00:55:00 10° ENE
CZ-4B R/B 3.5 00:47:02 10° NNE 00:52:12 89° ESE 00:55:16 26° SSW
Cosmos 1812 Rocket 3.6 00:47:48 10° NNW 00:52:15 68° W 00:54:30 28° S
STARLINK-1348 3.6 00:52:10 37° SSE 00:52:26 38° SE 00:55:22 10° ENE
STARLINK-1374 3.9 00:51:59 34° SSE 00:52:38 37° SE 00:55:55 10° ENE
SL-4 R/B 2.7 00:49:12 18° W 00:52:45 62° NNW 00:57:26 10° ENE
STARLINK-1330 3.5 00:52:29 37° SSE 00:52:45 38° SE 00:55:42 10° ENE
Cosmos 1437 4.0 00:52:48 24° W 00:52:59 24° WNW 00:55:31 10° NNW
STARLINK-1363 3.5 00:52:48 37° SSE 00:53:05 38° SE 00:56:02 10° ENE
STARLINK-1337 3.5 00:53:07 37° SSE 00:53:26 39° SE 00:56:22 10° ENE
STARLINK-1342 3.5 00:53:27 37° SSE 00:53:46 39° SE 00:56:43 10° ENE
STARLINK-1364 3.5 00:53:47 38° SSE 00:54:07 39° SE 00:57:04 10° ENE
STARLINK-1376 3.5 00:54:07 38° SSE 00:54:28 39° SE 00:57:25 10° ENE
STARLINK-1339 3.9 00:54:00 34° S 00:54:43 39° SE 00:58:00 10° ENE
STARLINK-1360 3.5 00:54:22 38° SSE 00:54:43 40° SE 00:57:41 10° ENE
STARLINK-1361 3.5 00:54:48 38° SSE 00:55:10 40° SE 00:58:07 10° ENE
STARLINK-1367 3.5 00:55:02 38° SSE 00:55:26 40° SE 00:58:25 10° ENE
STARLINK-1366 3.4 00:55:25 38° SSE 00:55:48 41° SE 00:58:46 10° ENE
STARLINK-1233 4.1 00:51:53 10° NW 00:56:00 61° NNE 01:00:06 10° ESE
STARLINK-1377 3.8 00:56:00 34° S 00:56:47 40° SE 01:00:06 10° ENE
Cosmos 990 Rocket 4.2 00:52:16 10° NNW 00:57:34 73° ENE 01:02:47 10° SSE
CBERS-1 4.2 00:53:30 10° NNE 00:58:37 70° ESE 01:02:06 21° S
STARLINK-1353 3.8 00:57:56 34° S 00:58:46 42° SE 01:02:05 10° ENE
ATLAS CENTAUR R/B 3.0 00:56:56 15° W 00:59:41 27° NW 01:03:14 10° NNE
SL-16 R/B 2.7 00:56:01 23° SSW 00:59:46 51° W 01:05:47 10° NNW
STARLINK-1375 3.7 00:59:43 34° S 01:00:38 43° SE 01:03:58 10° ENE
STARLINK-1204 4.0 00:56:53 10° NW 01:01:01 65° NNE 01:05:08 10° ESE
STARLINK-1350 3.6 01:01:59 34° S 01:02:59 45° SE 01:06:21 10° ENE
Alouette 2 Rocket 4.0 00:56:50 10° NNW 01:03:29 88° W 01:07:09 15° S
FALCON 9 DEB 3.1 01:02:07 34° WSW 01:03:31 83° NNW 01:06:59 10° ENE
BREEZE-M R/B 2.5 01:01:08 24° WSW 01:03:36 88° SSE 01:06:26 10° ENE
Cosmos 1602 Rocket 4.0 01:01:57 28° SW 01:03:49 47° WNW 01:08:00 10° N
Cosmos 1825 Rocket 3.7 01:01:14 22° S 01:03:58 68° E 01:08:17 10° NNE
STARLINK-1352 3.6 01:04:09 34° SSW 01:05:15 48° SE 01:08:40 10° ENE
OE (NEXTSAT) 4.2 01:03:39 28° WSW 01:05:23 84° S 01:08:52 10° E
STARLINK-1238 3.9 01:01:49 10° WNW 01:05:58 69° NNE 01:10:06 10° ESE
STARLINK-29 3.6 01:04:34 25° W 01:06:09 51° NNW 01:09:17 10° NE
Cosmos 1455 2.0 01:03:29 10° NNW 01:07:14 76° W 01:09:23 24° S
STARLINK-1368 3.5 01:06:14 33° SSW 01:07:25 50° SE 01:10:50 10° ENE
ATLAS 3B R/B 3.5 01:03:08 10° NW 01:08:58 31° WSW 01:12:43 19° SSW
STARLINK-1369 3.5 01:08:12 33° SSW 01:09:26 52° SE 01:12:52 10° ENE
BREEZE-M DEB (TANK) 1.6 01:09:30 51° S 01:09:38 53° SSE 01:12:06 10° ENE
STARLINK-1201 3.8 01:06:49 10° WNW 01:10:58 74° NNE 01:15:07 10° ESE
IRS-1D 3.6 01:06:04 10° NNE 01:11:27 88° ESE 01:15:16 19° SSW
STARLINK-1372 3.4 01:10:25 32° SSW 01:11:46 55° SE 01:15:13 10° ENE
CENTAUR R/B 4.5 01:07:10 10° WNW 01:12:28 19° WSW 01:14:47 17° SW
GP-B 3.1 01:08:46 10° N 01:13:13 75° W 01:16:10 21° SSW
STARLINK-1378 3.4 01:12:32 31° SSW 01:13:58 57° SE 01:17:27 10° ENE
STARLINK-1329 3.4 01:12:59 31° SSW 01:14:27 58° SE 01:17:56 10° ENE
BREEZE-M DEB (TANK) 2.4 01:12:39 13° WNW 01:14:38 37° N 01:16:59 10° ENE
STARLINK-1365 3.3 01:13:46 30° SSW 01:15:16 61° SE 01:18:47 10° ENE
STARLINK-1206 3.7 01:11:48 10° WNW 01:15:57 79° NNE 01:20:06 10° ESE
STARLINK-1379 3.3 01:14:39 30° SSW 01:16:10 60° SE 01:19:40 10° ENE
STARLINK-1362 3.3 01:15:10 30° SSW 01:16:43 60° SE 01:20:13 10° ENE
Cosmos-2242 2.9 01:12:35 10° N 01:16:53 86° W 01:20:31 14° S
STARLINK-1373 3.3 01:17:22 28° SW 01:19:00 63° SE 01:22:31 10° ENE
Cosmos 1400 Rocket 4.0 01:15:12 10° N 01:19:10 44° ENE 01:23:07 10° SSE
STARLINK-1205 3.6 01:16:47 10° WNW 01:20:56 84° NNE 01:25:05 10° ESE
STARLINK-1390 3.3 01:19:27 28° SW 01:21:10 66° SE 01:24:41 10° ENE
SL-08 R/B 3.4 01:16:32 10° SSE 01:21:14 76° ENE 01:25:53 10° N
RESURS DK-1 4.1 01:19:17 14° W 01:21:51 23° NW 01:25:13 10° N
Cosmos 2181 Rocket 4.0 01:17:06 10° N 01:23:31 77° W 01:29:57 10° S
Cosmos 2227 Rocket 2.2 01:19:44 10° NNW 01:25:22 64° WSW 01:30:57 10° S
STARLINK-1218 3.6 01:21:45 10° WNW 01:25:54 89° N 01:30:03 10° ESE
IRS-P3 4.2 01:20:54 10° NNE 01:26:16 85° ESE 01:30:49 15° SSW
CZ-2D R/B 2.9 01:21:59 10° N 01:26:48 37° WNW 01:30:15 17° SW
Cosmos 1763 Rocket 3.4 01:23:45 19° SSW 01:27:29 87° WNW 01:32:37 10° NNE
Cosmos 1697 Rocket 3.0 01:23:12 16° S 01:27:46 66° ESE 01:33:24 10° NNE
Cosmos 1703 3.3 01:26:47 21° SSW 01:29:21 66° W 01:33:18 10° N
ADEOS II 2.1 01:24:26 10° NNE 01:29:44 83° WNW 01:34:07 15° SSW
STARLINK-1254 3.5 01:26:44 10° WNW 01:30:54 85° SSW 01:35:02 10° SE
ATLAS 2AS CENTAUR R/B 4.5 01:25:40 10° W 01:32:36 31° NNW 01:39:22 10° NNE
STARLINK-1231 3.5 01:31:44 10° WNW 01:35:53 79° SSW 01:40:01 10° SE
Resurs 1-4 Rocket 3.2 01:31:53 10° N 01:36:28 31° WNW 01:40:11 14° WSW
STARLINK-1228 4.2 01:34:39 10° W 01:37:19 22° SW 01:39:59 10° S
STARLINK-1212 3.8 01:37:15 10° WNW 01:39:57 27° SW 01:42:38 10° SSE
STARLINK-1105 3.8 01:37:44 10° WNW 01:40:24 27° SW 01:43:04 10° SSE
STARLINK-1232 3.5 01:36:43 10° WNW 01:40:51 74° SW 01:44:59 10° SE
STARLINK-1247 3.8 01:38:39 10° WNW 01:41:20 27° SW 01:44:01 10° SSE
STARLINK-1227 3.8 01:39:07 10° WNW 01:41:46 26° SW 01:44:25 10° SSE
CZ-2C R/B 4.3 01:38:28 10° NNE 01:41:48 31° E 01:45:09 10° SSE
ARIANE 5 R/B 2.6 01:36:46 10° NNE 01:41:52 80° ESE 01:46:53 10° SSW
Cosmos 1758 Rocket 4.2 01:39:23 17° SW 01:42:15 39° WNW 01:46:21 10° N
STARLINK-1226 3.8 01:39:58 10° WNW 01:42:38 26° SW 01:45:18 10° SSE
STARLINK-52 4.3 01:39:43 10° W 01:42:42 35° NNW 01:45:42 10° NE
STARLINK-1215 3.9 01:40:56 10° W 01:43:35 25° SW 01:46:13 10° SSE
H-2A R/B 2.5 01:39:41 10° SSE 01:43:57 68° ENE 01:48:20 10° N
STARLINK-1217 3.9 01:42:43 10° W 01:45:20 25° SW 01:47:57 10° SSE
STARLINK-1208 3.5 01:41:41 10° WNW 01:45:49 68° SW 01:49:55 10° SE
STARLINK-1229 3.9 01:43:39 10° W 01:46:15 24° SW 01:48:50 10° SSE
STARLINK-1270 4.0 01:44:31 10° W 01:47:07 24° SW 01:49:42 10° SSE
Spot 4 Rocket 4.4 01:42:28 10° NNE 01:47:36 67° ESE 01:52:42 10° S
Meteor 1-27 4.4 01:42:17 10° N 01:47:53 77° ENE 01:53:26 10° SSE
STARLINK-1189 4.0 01:46:23 10° W 01:48:57 23° SW 01:51:28 10° S
STARLINK-1188 4.0 01:47:17 10° W 01:49:49 23° SW 01:52:21 10° S
Cosmos 1898 Rocket 3.9 01:45:16 10° NW 01:50:18 43° WSW 01:55:17 10° S
STARLINK-1235 4.4 01:48:14 10° W 01:50:24 17° SW 01:52:33 10° S
STARLINK-1271 3.6 01:46:42 10° WNW 01:50:48 63° SW 01:54:53 10° SE
STARLINK-1187 4.2 01:48:32 10° W 01:50:52 20° SW 01:53:11 10° S
STARLINK-1191 4.1 01:49:49 10° W 01:52:15 21° SW 01:54:41 10° S
Lacrosse 4 Rocket 1.6 01:48:08 10° NNW 01:52:30 77° ENE 01:56:43 10° SE
Cosmos 1656 4.2 01:48:20 14° SW 01:53:03 48° WNW 01:58:31 10° NNE
STARLINK-1221 4.1 01:50:41 10° W 01:53:08 21° SW 01:55:33 10° S
STARLINK-1222 4.1 01:51:37 10° W 01:54:01 21° SW 01:56:24 10° S
STARLINK-1214 4.2 01:52:32 10° W 01:54:55 20° SW 01:57:17 10° S
CZ-4C R/B 2.1 01:50:43 14° SW 01:55:06 88° SE 02:01:06 10° NE
IDEFIX/ARIANE 42P 3.2 01:50:04 10° NNE 01:55:16 56° E 02:00:25 10° S
SJ 16-02 2.4 01:51:55 10° NW 01:55:39 27° W 01:59:17 10° SSW
STARLINK-1154 3.6 01:51:41 10° WNW 01:55:46 58° SW 01:59:49 10° SE
Cosmos 2285 Rocket 4.0 01:49:37 10° NNW 01:55:55 63° WSW 02:02:08 10° S
Cosmos 1570 Rocket 4.1 01:53:01 12° SSW 01:58:02 77° WNW 02:03:22 10° NNE
Cosmos 1953 Rocket 4.0 01:54:38 13° SSW 01:58:30 48° WNW 02:02:50 10° N
Cosmos 1937 Rocket 3.8 01:55:35 10° NNW 02:00:36 48° WSW 02:05:38 10° S
STARLINK-1197 3.7 01:56:41 10° WNW 02:00:43 53° SW 02:04:45 10° SE
Cosmos 2208 Rocket 4.0 01:55:43 10° SSW 02:00:54 86° WNW 02:06:15 10° NNE
Cosmos 2369 3.8 01:55:55 12° SSW 02:01:13 75° WNW 02:06:53 10° NNE
Uosat 12 SS-18 rocket 4.3 01:58:32 10° NW 02:02:50 76° NE 02:07:22 10° SE
STARLINK-1236 4.5 01:58:55 10° NW 02:03:00 53° NNE 02:07:04 10° ESE
Cosmos 2360 4.3 01:58:27 10° SSW 02:04:08 89° ESE 02:09:53 10° NNE
STARLINK-1198 3.8 02:01:39 10° WNW 02:05:39 49° SW 02:09:40 10° SE
Cosmos 1842 Rocket 3.7 02:01:59 10° N 02:06:30 86° E 02:10:59 10° S
STARLINK-1199 3.9 02:06:41 10° WNW 02:10:39 45° SW 02:14:37 10° SSE
IRIDIUM 104 4.5 02:06:19 10° S 02:11:31 82° E 02:16:46 10° N
Iridium 2 3.7 02:07:50 10° N 02:11:35 64° W 02:15:17 10° S
STARLINK-1269 4.3 02:08:51 10° NW 02:12:59 60° NNE 02:17:04 10° ESE
USA 129 1.6 02:11:37 10° NNE 02:13:37 55° E 02:15:02 10° S
STARLINK-1210 4.0 02:11:41 10° WNW 02:15:36 41° SW 02:19:30 10° SSE
Cosmos 1814 Rocket 4.1 02:11:33 10° SSW 02:16:53 72° WNW 02:22:15 10° NNE
STARLINK-1200 4.2 02:13:51 10° NW 02:17:58 64° NNE 02:22:06 10° ESE
STARLINK-1320 3.9 02:15:26 10° W 02:18:25 41° NNW 02:21:25 10° NE
STARLINK-1322 3.9 02:15:47 10° W 02:18:46 41° NNW 02:21:45 10° NE
STARLINK-1324 3.9 02:16:08 10° W 02:19:07 41° NNW 02:22:07 10° NE
STARLINK-1294 3.9 02:16:24 10° W 02:19:24 41° NNW 02:22:25 10° NE
STARLINK-1261 3.9 02:16:48 10° W 02:19:47 41° NNW 02:22:46 10° NE
Cosmos 1980 Rocket 2.2 02:14:27 10° SSW 02:20:04 89° WNW 02:25:45 10° NNE
Cosmos 1125 Rocket 4.3 02:14:56 10° NNW 02:20:04 56° ENE 02:25:10 10° SE
STARLINK-1325 3.9 02:17:10 10° W 02:20:08 41° NNW 02:23:07 10° NE
STARLINK-1333 3.9 02:17:28 10° W 02:20:26 40° NNW 02:23:25 10° NE
STARLINK-1219 4.1 02:16:41 10° WNW 02:20:33 38° SW 02:24:24 10° SSE
IRIDIUM 114 4.4 02:15:28 10° S 02:20:41 83° W 02:25:57 10° N
CZ-2C R/B 4.1 02:16:06 10° NNE 02:20:46 35° E 02:25:29 10° SSE
STARLINK-1334 3.9 02:17:48 10° W 02:20:47 40° NNW 02:23:46 10° NE
Nadezhda 3 Rocket 4.0 02:14:42 10° N 02:21:00 81° W 02:27:18 10° S
STARLINK-1326 3.9 02:18:09 10° W 02:21:08 40° NNW 02:24:07 10° NE
CZ-4B R/B 3.0 02:18:32 10° SE 02:21:21 36° ENE 02:24:12 10° N
STARLINK-1323 3.9 02:18:30 10° W 02:21:28 40° NNW 02:24:27 10° NE
STARLINK-1338 3.9 02:18:19 10° W 02:21:42 47° NNW 02:25:05 10° NE
STARLINK-1349 3.9 02:18:50 10° W 02:21:48 40° NNW 02:24:47 10° NE
STARLINK-1336 3.9 02:19:13 10° W 02:22:10 40° NNW 02:25:09 10° NE
STARLINK-1331 3.9 02:19:31 10° W 02:22:29 39° NNW 02:25:27 10° NE
STARLINK-1344 4.0 02:19:51 10° W 02:22:50 39° NNW 02:25:48 10° NE
STARLINK-1192 4.1 02:18:50 10° WNW 02:22:58 68° NNE 02:27:06 10° ESE
STARLINK-1343 4.0 02:20:12 10° W 02:23:10 39° NNW 02:26:08 10° NE
STARLINK-1346 4.0 02:20:32 10° W 02:23:31 39° NNW 02:26:32 10° NE
ERS-2 3.1 02:20:35 10° SSW 02:23:48 29° W 02:27:03 10° NW
STARLINK-1328 4.0 02:20:54 10° W 02:23:51 39° NNW 02:26:50 10° NE
STARLINK-1354 4.0 02:21:13 10° W 02:24:10 39° NNW 02:27:08 10° NE
STARLINK-1347 4.0 02:21:35 10° W 02:24:32 38° NNW 02:27:30 10° NE
STARLINK-1357 4.0 02:21:54 10° W 02:24:51 38° NNW 02:27:49 10° NE
STARLINK-1335 4.0 02:22:16 10° W 02:25:12 38° NNW 02:28:10 10° NE
STARLINK-1211 4.2 02:21:41 10° WNW 02:25:29 35° SW 02:29:16 10° SSE
STARLINK-1327 4.0 02:22:35 10° W 02:25:32 38° NNW 02:28:29 10° NE
STARLINK-1371 4.0 02:22:22 10° W 02:25:44 45° NNW 02:29:08 10° NE
STARLINK-1340 4.0 02:22:56 10° W 02:25:53 38° NNW 02:28:51 10° NE
STARLINK-1356 4.0 02:23:17 10° W 02:26:14 38° NNW 02:29:11 10° NE
STARLINK-1345 4.0 02:23:38 10° W 02:26:34 37° NNW 02:29:32 10° NE
STARLINK-1355 4.0 02:23:58 10° W 02:26:54 37° NNW 02:29:51 10° NE
STARLINK-1321 4.0 02:24:17 10° W 02:27:13 37° NNW 02:30:11 10° NE
STARLINK-1358 4.1 02:24:39 10° W 02:27:35 37° NNW 02:30:33 10° NE
ERBS 4.0 02:24:37 10° NW 02:27:47 37° NNE 02:30:56 10° ESE
STARLINK-1341 4.1 02:24:25 10° W 02:27:47 44° NNW 02:31:10 10° NE
STARLINK-1332 4.1 02:24:58 10° W 02:27:55 37° NNW 02:30:51 10° NE
STARLINK-1244 4.0 02:23:47 10° WNW 02:27:56 72° NNE 02:32:05 10° ESE
STARLINK-1348 4.1 02:25:20 10° W 02:28:16 37° NNW 02:31:13 10° NE
STARLINK-1330 4.1 02:25:40 10° W 02:28:35 37° NNW 02:31:32 10° NE
STARLINK-1363 4.1 02:26:00 10° W 02:28:55 36° NNW 02:31:52 10° NE
STARLINK-1337 4.1 02:26:20 10° W 02:29:16 36° NNW 02:32:13 10° NE
STARLINK-1342 4.1 02:26:41 10° W 02:29:37 36° NNW 02:32:33 10° NE
STARLINK-1374 4.1 02:26:29 10° W 02:29:50 43° NNW 02:33:14 10° NE
IRIDIUM 103 4.4 02:24:40 10° S 02:29:51 70° W 02:35:05 10° N
STARLINK-1364 4.1 02:27:02 10° W 02:29:57 36° NNW 02:32:53 10° NE
STARLINK-1245 4.3 02:26:45 10° WNW 02:30:27 32° SW 02:34:09 10° SSE
Cosmos 2341 Rocket 4.5 02:25:26 10° S 02:31:45 70° E 02:38:06 10° NNE
